RADUGA-1 8 [-]

Last updated on June 24, 2019, 3:40 a.m. UTC

1 34264U 09010A   19173.91072831  .00000071  00000-0  00000+0 0  9998
2 34264   7.1349  62.2546 0013435 323.5205 277.1070  0.99815421 37694
UTC
Height (km)
Latitude
Longitude
Inclination
Orbital Period
UTC large
Height (km)
Speed (km/s)
/
Latitude / Longitude
Inclination (degrees)
Orbital Period (minutes)
Azimuth
Elevation
Range (km)
Doppler Factor
iOS Compass Heading
iOS Angle

Next 30 passes for location: Hong Kong

Rise time Rise Azimuth (degrees) Set time Set Azimuth (degrees) Duration Max altitude (degrees)

No matching passes for this satellites